Location: *
(57.8420°S, 159.8600°W)
Time: 03:14:17
(UTC+00:00)

Cosmos 2237 Rocket - Pass Details

Date: 18 May 2021
Orbit: 836 x 848 km, 71.0° (Epoch: 20 June)

Event Time Altitude Azimuth Distance (km) Brightness Sun altitude
Rises 05:56:38 0° 307° (NW) 3,418 6.0 -27.2°
Reaches altitude 10° 05:59:08 10° 302° (WNW) 2,490 5.2 -27.5°
Maximum altitude 06:04:46 56° 224° (SW) 1,023 2.7 -28.3°
Enters shadow 06:06:23 42° 173° (S) 1,217 2.9 -28.5°
